Weather History for Pottstown, PA

Change the Weather History Date:

Saturday, March 23, 2013

  Actual Average (KRDG) Record (KRDG)
Temperature  
Mean Temperature 38 °F 44 °F  
Max Temperature 48 °F 53 °F 80 °F (2012)
Min Temperature 30 °F 34 °F 14 °F (1906)
Degree Days  
Heating Degree Days 27 22  
Month to date heating degree days 583  
Since 1 July heating degree days 4625  
Cooling Degree Days 0 0  
Month to date cooling degree days 0  
Year to date cooling degree days 0  
Moisture  
Dew Point 19 °F    
Average Humidity 47    
Maximum Humidity 61    
Minimum Humidity 34    
Precipitation  
Precipitation 0.00 in 0.12 in 2.18 in (1903)
Month to date precipitation 2.42  
Year to date precipitation 7.95  
Sea Level Pressure  
Sea Level Pressure 29.94 in    
Wind  
Wind Speed 8 mph (WNW)    
Max Wind Speed 16 mph    
Max Gust Speed 24 mph    
Visibility 10 miles    
Events      
T = Trace of Precipitation, MM = Missing Value Source: NWS Daily Summary

Daily Weather History Graph

Daily Weather History Graph

Search for Another Location

Airport:

Trip Planner

Search our weather history database for the weather conditions in past years. The results will help you decide how hot, cold, wet, or windy it might be!

Date:

Astronomy

Mar. 23, 2013 Rise Set
Actual Time 7:00 AM EDT 7:17 PM EDT
Civil Twilight 6:33 AM EDT 7:44 PM EDT
Nautical Twilight 6:01 AM EDT 8:16 PM EDT
Astronomical Twilight 5:28 AM EDT 8:49 PM EDT
Moon 3:41 PM EDT (3/23) 4:35 AM EDT (3/23)
Length of Visible Light 13h 11m
Length of Day
12h 17m
Waxing Gibbous, 85% of the Moon is Illuminated
Mar 23
Waxing Gibbous
Mar 27
Full
Apr 3
Last Quarter
Apr 10
New
Apr 18
First Quarter

Hourly Weather History & Observations

Time (EDT) Temp. Windchill Dew Point Humidity Pressure Visibility Wind Dir Wind Speed Gust Speed Precip Events Conditions
12:54 AM 30.9 °F 25.2 °F 19.0 °F 61% 29.96 in 10.0 mi WNW 5.8 mph - N/A   Clear
1:54 AM 30.9 °F 24.3 °F 18.0 °F 59% 29.97 in 10.0 mi West 6.9 mph - N/A   Scattered Clouds
2:54 AM 30.9 °F 26.2 °F 19.0 °F 61% 29.95 in 10.0 mi WNW 4.6 mph - N/A   Mostly Cloudy
3:54 AM 32.0 °F 28.7 °F 19.9 °F 61% 29.94 in 10.0 mi WNW 3.5 mph - N/A   Overcast
4:54 AM 33.1 °F 25.5 °F 19.0 °F 56% 29.94 in 10.0 mi WNW 9.2 mph - N/A   Overcast
5:54 AM 32.0 °F 24.8 °F 19.0 °F 59% 29.95 in 10.0 mi NW 8.1 mph - N/A   Overcast
6:54 AM 32.0 °F 24.8 °F 19.0 °F 59% 29.96 in 10.0 mi NW 8.1 mph - N/A   Overcast
7:54 AM 32.0 °F 27.5 °F 19.0 °F 59% 29.97 in 10.0 mi WNW 4.6 mph - N/A   Overcast
8:54 AM 35.1 °F 27.4 °F 19.9 °F 54% 29.97 in 10.0 mi WNW 10.4 mph 16.1 mph N/A   Scattered Clouds
9:54 AM 37.0 °F 28.9 °F 19.9 °F 50% 29.96 in 10.0 mi WNW 12.7 mph - N/A   Clear
10:54 AM 39.9 °F 32.5 °F 21.0 °F 47% 29.96 in 10.0 mi West 12.7 mph 21.9 mph N/A   Clear
11:54 AM 42.1 °F 35.7 °F 19.9 °F 41% 29.95 in 10.0 mi WNW 11.5 mph - N/A   Clear
12:54 PM 45.0 °F 39.3 °F 19.9 °F 37% 29.93 in 10.0 mi WNW 11.5 mph 19.6 mph N/A   Mostly Cloudy
1:54 PM 46.0 °F 39.9 °F 19.9 °F 35% 29.91 in 10.0 mi NW 13.8 mph 23.0 mph N/A   Scattered Clouds
2:54 PM 46.9 °F - 19.9 °F 34% 29.89 in 10.0 mi NW 12.7 mph 21.9 mph N/A   Mostly Cloudy
3:54 PM 46.9 °F - 19.9 °F 34% 29.89 in 10.0 mi WNW 16.1 mph 23.0 mph N/A   Partly Cloudy
4:54 PM 46.0 °F 39.9 °F 19.0 °F 34% 29.89 in 10.0 mi WNW 13.8 mph 24.2 mph N/A   Clear
5:54 PM 44.1 °F 37.7 °F 19.0 °F 37% 29.90 in 10.0 mi West 12.7 mph 19.6 mph N/A   Clear
6:54 PM 43.0 °F 36.0 °F 19.0 °F 38% 29.92 in 10.0 mi WNW 13.8 mph 17.3 mph N/A   Partly Cloudy
7:54 PM 41.0 °F 36.4 °F 19.0 °F 41% 29.94 in 10.0 mi NW 6.9 mph - N/A   Clear
8:54 PM 39.9 °F 33.9 °F 18.0 °F 41% 29.95 in 10.0 mi NNW 9.2 mph - N/A   Clear
9:54 PM 37.9 °F 33.5 °F 18.0 °F 45% 29.97 in 10.0 mi WNW 5.8 mph - N/A   Clear
10:54 PM 37.0 °F 30.4 °F 18.0 °F 46% 29.97 in 10.0 mi NW 9.2 mph - N/A   Clear
11:54 PM 35.1 °F 31.0 °F 18.0 °F 50% 29.97 in 10.0 mi NW 4.6 mph - N/A   Clear